Погода в Тобольске

Погода в Тобольске : погода сейчас, прогноз погоды и архив. Всё, что Вы хотите узнать о погоде в Тобольске!

Хотите узнать прогноз погоды в Тобольске? Тогда Вам сюда: Погода в Тобольске

Поиск расширенной информации на нашем сайте:

Другие новости

Новости СМИ2

Главная страница сайта

Новости сайта

03.07.2017

Напоминаем, что на нашем специализированном сайте Метеоцентр.Азия вы можете получить высокодетализированные автоматические прогнозы погоды по пунктам России, СНГ и мира в авиационном формате (включающие направление и скорость ветра, видимость, явления погоды, количество и форму облачности, нижнюю и верхнюю границу облачности).


Погода в Тобольске - сегодня

Время (UTC), дата Ветер
(°,м/с) 
Видим.   Явления Облачность Т
(°С)
Тd
(°С)
f(%) Тe
(°С)
Pmin
(гПа)
dP
(гПа)
Po
(мм)
O2
(г/м3)
Тmin Tmax R s Состояние
почвы
12 18.04.18 230 (ЮЗ) 20000 м    10/3 600 м средняя, верхняя 
[Sc|Ac trans|Ci sp]
+2.2 -12.8 32 +2  1021.5  -0.9  761  306           
18 18.04.18 190 (Ю) 10 км    ясно 
-2.9 -11.4 52 -4  1019.4  -1  760  311           
21 18.04.18 220 (ЮЗ) 10 км    ясно 
-2.7 -11.6 50 -5  1017.7  -1.7  759  310           
00 19.04.18 220 (ЮЗ) 10 км    10/0 верхняя 
[Ci sp]
-3.3 -10.4 58 -5  1016  -1.7  757  310           
03 19.04.18 220 (ЮЗ) 20000 м    10/0 верхняя 
[Cs]
-0.4 -6.4 64 -3  1014.1  -1.8  756  306  -3.5      мокрый или
старый снег
50-90% 
06 19.04.18 210 (ЮЗ) 5{11}  20000 м    10/0 верхняя 
[Cs]
+3.6 -5.5 51 +1  1011.8  -2.2  754  301           
12 19.04.18 210 (ЮЗ) 3{10}  20000 м    10/3 600 м верхняя 
[Sc|Ci sp]
+5.8 -4.1 49 +5  1008.9  -1.1  752  297           
18 19.04.18 100 (В) 20000 м    10/0 верхняя 
[Ci sp]
-0.2 -3.7 77 -1  1005.2  -2.3  749  303           
21 19.04.18 080 (В) 10 км    6/0 верхняя 
[Ci sp]
-1.7 -4.3 82 -3  1002.5  -2.8  747  303           
00 20.04.18 110 (В) 10 км    3/0 верхняя 
[Ci sp]
-1.6 -4.1 83 -3  1000  -2.4  745  303           
03 20.04.18 230 (ЮЗ) 20000 м    4/0 верхняя 
[Ci sp]
+4.4 -2.2 62 +3  998.8  -1.1  745  295  -1.9      мокрый или
старый снег
50-90% 
06 20.04.18 220 (ЮЗ) 20000 м    10/0 средняя 
[As op]
+6.4 -1.5 57 +5  998.5  -0.3  744  293           
09 20.04.18 220 (ЮЗ) 10 км  слаб. дождь  10/10 300 м 
[Frnb|Ns]
+5.1 +3.6 90 +6  998.2  -0.3  744  294           
12 20.04.18 330 (СЗ) 10 км  слаб. дождь  10/10 300 м 
[Frnb|Ns]
+4.3 +3 91 +4  997.5  -0.7  744  295           
15 20.04.18 340 (С) 10 км  слаб. дождь  10/10 300 м 
[Frnb|Ns]
+1.6 +0.5 92 998.6  744  298    +7.3     
03 21.04.18 340 (С) 20000 м  [диам. отлож. мокр. снега 1 мм]  10/0 верхняя 
[Ci sp]
-1.6 -6.7 68 -4  1002.5  0.9  747  304  -2.1    равномерный
мокрый или
старый снег
100% 
06 21.04.18 340 (С) 20000 м  [диам. отлож. мокр. снега 0 мм]  10/0 верхняя 
[Ci sp]
+0.3 -10.8 43 -1  1003.2  0.8  748  302           
09 21.04.18 350 (С) 20000 м    10/0 средняя, верхняя 
[Ac und|Ci fib]
+1.2 -11.6 38 1003.1  0.2  748  301           
12 21.04.18 340 (С) 20000 м    10/3 600 м верхняя 
[Sc|Ci sp]
+2.2 -11.4 36 +2  1003.7  0.3  748  300           
18 21.04.18 020 (С) 10 км    9/9 600 м 
[Sc]
-1.7 -10.5 51 -3  1005.1  0.7  749  305           
21 21.04.18 340 (С) 10 км    ясно 
-5.1 -10.3 67 -6  1005.7  0.6  750  309           
00 22.04.18 320 (СЗ) 10 км    ясно 
-7.3 -10.3 79 -9  1006.9  1.1  750  312           
03 22.04.18 330 (СЗ) 20000 м    3/0 верхняя 
[Ci sp]
-1.1 -10.5 49 -1  1008.3  1.5  752  305  -7.7      мокрый или
старый снег
10-40% 
06 22.04.18 330 (СЗ) 20000 м    8/0 верхняя 
[Ci fib]
+1 -15.7 27 1009.3  1.1  752  303           
09 22.04.18 090 (В) 20000 м    8/0 верхняя 
[Ci sp]
+3.4 -15.1 24 +4  1009.4  0.1  752  301           
Время (UTC), дата Ветер
(°,м/с) 
Видим.   Явления Облачность Т
(°С)
Тd
(°С)
f(%) Тe
(°С)
Pmin
(гПа)
dP
(гПа)
Po
(мм)
O2
(г/м3)
Тmin Tmax R s Состояние
почвы

Для получения пояснительной информации подведите курсор к названию столбца.

ПОГОДА в Тобольске - архив

Всё, что Вы хотите узнать о погоде в Тобольске - удобно и подробно!

Выберите нужную дату (начиная с 1 января 2015* года) и нажмите кнопку "Найти".
Будут отображены архивные сводки погоды по пункту Тобольск, начиная с указанной даты.


Отображать данные в формате CSV (для использования в таблицах Excel)


Внимание! Наш архив погоды предназначен исключительно для личного некоммерческого использования в познавательных целях. Если Вам необходимы официальные справки о состоянии погоды (для производственных, юридических, коммерческих и т.п. целей), обращайтесь в органы Росгидромета.

*Примечание: данная дата относится к архиву по метеостанциям СССР (Россия, СНГ, Балтия).
Архив по метеостанциям Зарубежной Европы и Азии (кроме Китая) хранится 10 дней, по другим регионам земного шара (Китай, Африка, Америка, Австралия, Океания) - 1 день.

Тобольск - район местоположения метеостанции


Название, широта, долгота, высота метеостанции:
Тобольск 58.2°ш. 68.2°д. 50 м над ур. моря [Российская Федерация]

Дополнительная информация

В oтличие oт бoльшинства пoгoдных сайтoв мы публикуем пoдрoбную метеoинфoрмацию в детальнoм прoфессиoнальнoм фoрмате.

Характеристики температуры и влажнoсти вoздуха измеряются на высoте 2 м в тени вдали oт зданий и деревьев.
Скoрoсть ветра измеряется на высoте 10 м (на урoвне рoста челoвека скoрoсть ветра ниже в 1.5-2 раза). Если метеoстанция нахoдится в гoрoде или в лесу, тo скoрoсть ветра занижена на 2-4 м/с пo сравнению с oткрытым местoм. Скoрoсть ветра над акватoриями крупных рек и oзёр, а также на вершинах хoлмoв на 2-5 м/с выше, чем в oбычных услoвиях.
Атмoсфернoе давление в разных тoчках местнoсти мoжет значительнo oтличаться oт давления на метеoстанции, в зависимoсти oт услoвий рельефа (при пoдъёме на 10 м давление пoнижается примернo на 1 мм рт.ст.).